When you browse on this site, cookies collect data to enhance your experience and personalize the content and advertising you see.
Visit our Privacy Policy to learn more. By continuing to use the site, you agree to this use of cookies and data.
  • In Deutschland
  • Länderverzeichnis
  • Für 7 Tage
  • Wassertemperatur
  • Satellitenkarten
  • Wetterkarte
  • Widgets
  • user-avatar
    Anmelden

    Stündliche Wetter Gorodna 1

    Heute, 19 Februar, Dienstag

    Zeit Temperatur Niederschläge Wind Luftdruck Luftfeuchtigkeit
    00:00 -8°C° 0 mm 2 m/S 745 mmHg 90%
    01:00 -8°C° 0 mm 2 m/S 745 mmHg 91%
    02:00 -9°C° 0 mm 2 m/S 744 mmHg 92%
    03:00 -8°C° 0 mm 2 m/S 744 mmHg 90%
    04:00 -9°C° 0 mm 3 m/S 743 mmHg 88%
    05:00 -9°C° 0 mm 3 m/S 743 mmHg 86%
    06:00 -9°C° 0 mm 4 m/S 742 mmHg 84%
    07:00 -9°C° 0 mm 4 m/S 742 mmHg 82%
    08:00 -10°C° 0 mm 5 m/S 742 mmHg 79%
    09:00 -7°C° 0 mm 5 m/S 741 mmHg 77%
    10:00 -6°C° 0 mm 5 m/S 741 mmHg 75%
    11:00 -4°C° 0 mm 5 m/S 740 mmHg 72%
    12:00 -4°C° 0 mm 5 m/S 740 mmHg 73%
    13:00 -2°C° 0 mm 5 m/S 739 mmHg 74%
    14:00 +1°C° 0 mm 3 m/S 739 mmHg 78%
    15:00 -1°C° 0 mm 4 m/S 738 mmHg 79%
    16:00 -2°C° 0 mm 4 m/S 737 mmHg 81%
    17:00 -3°C° 0 mm 4 m/S 737 mmHg 82%
    18:00 -4°C° 0 mm 5 m/S 736 mmHg 84%
    19:00 -4°C° 0 mm 5 m/S 735 mmHg 87%
    20:00 -4°C° 0 mm 5 m/S 735 mmHg 90%
    21:00 -2°C° 0 mm 5 m/S 734 mmHg 90%
    22:00 -2°C° 0 mm 5 m/S 733 mmHg 90%
    23:00 -1°C° 0 mm 5 m/S 733 mmHg 91%

    Morgen, 20 Februar, Mittwoch

    Zeit Temperatur Niederschläge Wind Luftdruck Luftfeuchtigkeit
    00:00 -1°C° 0.1 mm 5 m/S 732 mmHg 92%
    01:00 -1°C° 0.1 mm 5 m/S 731 mmHg 93%
    02:00 0°C° 0.1 mm 5 m/S 731 mmHg 93%
    03:00 0°C° 0.1 mm 4 m/S 730 mmHg 93%
    04:00 -1°C° 0.1 mm 4 m/S 730 mmHg 93%
    05:00 -1°C° 0.1 mm 4 m/S 730 mmHg 93%
    06:00 -1°C° 0.1 mm 4 m/S 729 mmHg 93%
    07:00 -1°C° 0.1 mm 4 m/S 729 mmHg 94%
    08:00 -1°C° 0.1 mm 4 m/S 729 mmHg 94%
    09:00 -1°C° 0.1 mm 4 m/S 729 mmHg 94%
    10:00 -1°C° 0.1 mm 5 m/S 729 mmHg 94%
    11:00 0°C° 0.1 mm 5 m/S 729 mmHg 93%
    12:00 0°C° 0.1 mm 5 m/S 729 mmHg 93%
    13:00 0°C° 0.1 mm 5 m/S 729 mmHg 92%
    14:00 0°C° 0.1 mm 4 m/S 728 mmHg 92%
    15:00 0°C° 0.2 mm 5 m/S 728 mmHg 91%
    16:00 0°C° 0.2 mm 5 m/S 728 mmHg 91%
    17:00 0°C° 0.2 mm 5 m/S 727 mmHg 90%
    18:00 0°C° 0.4 mm 5 m/S 727 mmHg 90%
    19:00 -1°C° 0.4 mm 5 m/S 727 mmHg 89%
    20:00 -1°C° 0.4 mm 5 m/S 727 mmHg 88%
    21:00 -2°C° 0.1 mm 5 m/S 727 mmHg 86%
    22:00 -4°C° 0.1 mm 5 m/S 727 mmHg 83%
    23:00 -5°C° 0.1 mm 4 m/S 727 mmHg 80%

    übermorgen, 21 Februar, Donnerstag

    Zeit Temperatur Niederschläge Wind Luftdruck Luftfeuchtigkeit
    00:00 -6°C° 0.1 mm 5 m/S 727 mmHg 82%
    01:00 -6°C° 0.1 mm 5 m/S 728 mmHg 83%
    02:00 -6°C° 0.1 mm 6 m/S 728 mmHg 84%
    03:00 -6°C° 0.2 mm 6 m/S 729 mmHg 84%
    04:00 -8°C° 0.2 mm 6 m/S 729 mmHg 84%
    05:00 -8°C° 0.2 mm 6 m/S 729 mmHg 84%
    06:00 -8°C° 0.1 mm 6 m/S 729 mmHg 83%
    07:00 -9°C° 0.1 mm 6 m/S 730 mmHg 82%
    08:00 -9°C° 0.1 mm 6 m/S 730 mmHg 81%
    09:00 -9°C° 0.1 mm 6 m/S 731 mmHg 80%
    10:00 -8°C° 0.1 mm 7 m/S 731 mmHg 79%
    11:00 -8°C° 0.1 mm 7 m/S 732 mmHg 78%
    12:00 -8°C° 0.1 mm 7 m/S 733 mmHg 77%
    13:00 -8°C° 0.1 mm 7 m/S 733 mmHg 77%
    14:00 -8°C° 0.1 mm 7 m/S 734 mmHg 76%
    15:00 -9°C° 0 mm 6 m/S 735 mmHg 76%
    16:00 -10°C° 0 mm 6 m/S 736 mmHg 76%
    17:00 -11°C° 0 mm 6 m/S 736 mmHg 77%
    18:00 -12°C° 0 mm 5 m/S 737 mmHg 77%
    19:00 -12°C° 0 mm 5 m/S 738 mmHg 77%
    20:00 -13°C° 0 mm 5 m/S 738 mmHg 77%
    21:00 -13°C° 0 mm 5 m/S 739 mmHg 78%
    22:00 -14°C° 0 mm 5 m/S 739 mmHg 78%
    23:00 -14°C° 0 mm 4 m/S 740 mmHg 79%

    22 Februar, Freitag

    Zeit Temperatur Niederschläge Wind Luftdruck Luftfeuchtigkeit
    00:00 -14°C° 0 mm 4 m/S 740 mmHg 79%
    01:00 -15°C° 0 mm 4 m/S 741 mmHg 79%
    02:00 -15°C° 0 mm 5 m/S 741 mmHg 80%
    03:00 -15°C° 0 mm 5 m/S 742 mmHg 79%
    04:00 -17°C° 0 mm 5 m/S 742 mmHg 79%
    05:00 -17°C° 0 mm 5 m/S 742 mmHg 79%
    06:00 -17°C° 0 mm 5 m/S 743 mmHg 79%
    07:00 -17°C° 0 mm 5 m/S 744 mmHg 78%
    08:00 -17°C° 0 mm 5 m/S 744 mmHg 78%
    09:00 -16°C° 0 mm 6 m/S 744 mmHg 74%
    10:00 -15°C° 0 mm 6 m/S 745 mmHg 70%
    11:00 -14°C° 0 mm 7 m/S 745 mmHg 67%
    12:00 -13°C° 0 mm 7 m/S 745 mmHg 66%
    13:00 -13°C° 0 mm 7 m/S 745 mmHg 65%
    14:00 -12°C° 0 mm 7 m/S 745 mmHg 64%
    15:00 -12°C° 0 mm 6 m/S 746 mmHg 66%
    16:00 -12°C° 0 mm 6 m/S 746 mmHg 68%
    17:00 -13°C° 0 mm 5 m/S 746 mmHg 70%
    18:00 -13°C° 0 mm 5 m/S 747 mmHg 73%
    19:00 -14°C° 0 mm 5 m/S 747 mmHg 75%
    20:00 -14°C° 0 mm 5 m/S 748 mmHg 77%
    21:00 -15°C° 0 mm 5 m/S 748 mmHg 78%
    22:00 -15°C° 0 mm 5 m/S 749 mmHg 80%
    23:00 -15°C° 0 mm 4 m/S 749 mmHg 81%

    23 Februar, Samstag

    Zeit Temperatur Niederschläge Wind Luftdruck Luftfeuchtigkeit
    00:00 -16°C° 0 mm 4 m/S 750 mmHg 82%
    01:00 -16°C° 0 mm 4 m/S 750 mmHg 83%
    02:00 -16°C° 0 mm 4 m/S 750 mmHg 83%
    03:00 -16°C° 0 mm 4 m/S 751 mmHg 84%
    04:00 -16°C° 0 mm 4 m/S 751 mmHg 85%
    05:00 -17°C° 0 mm 4 m/S 751 mmHg 86%
    06:00 -16°C° 0 mm 3 m/S 751 mmHg 87%
    07:00 -16°C° 0 mm 3 m/S 751 mmHg 88%
    08:00 -16°C° 0 mm 3 m/S 752 mmHg 89%
    09:00 -15°C° 0 mm 3 m/S 752 mmHg 86%
    10:00 -15°C° 0 mm 3 m/S 752 mmHg 83%
    11:00 -14°C° 0 mm 3 m/S 752 mmHg 80%
    12:00 -13°C° 0 mm 3 m/S 752 mmHg 77%
    13:00 -12°C° 0 mm 3 m/S 751 mmHg 75%
    14:00 -10°C° 0 mm 3 m/S 751 mmHg 72%
    15:00 -9°C° 0 mm 2 m/S 751 mmHg 75%
    16:00 -10°C° 0 mm 2 m/S 751 mmHg 78%
    17:00 -10°C° 0 mm 2 m/S 751 mmHg 81%
    18:00 -9°C° 0 mm 1 m/S 751 mmHg 82%
    19:00 -10°C° 0 mm 1 m/S 751 mmHg 84%
    20:00 -10°C° 0 mm 1 m/S 751 mmHg 86%
    21:00 -10°C° 0 mm 1 m/S 751 mmHg 85%
    22:00 -10°C° 0 mm 1 m/S 751 mmHg 85%
    23:00 -9°C° 0 mm 0 m/S 751 mmHg 85%

    24 Februar, Sonntag

    Zeit Temperatur Niederschläge Wind Luftdruck Luftfeuchtigkeit
    00:00 -9°C° 0 mm 0 m/S 751 mmHg 85%
    01:00 -10°C° 0 mm 0 m/S 751 mmHg 84%
    02:00 -10°C° 0 mm 0 m/S 751 mmHg 84%
    03:00 -10°C° 0 mm 0 m/S 751 mmHg 84%
    04:00 -10°C° 0 mm 0 m/S 751 mmHg 84%
    05:00 -10°C° 0 mm 0 m/S 751 mmHg 84%
    06:00 -9°C° 0 mm 0 m/S 751 mmHg 84%
    07:00 -9°C° 0 mm 0 m/S 752 mmHg 84%
    08:00 -8°C° 0 mm 0 m/S 752 mmHg 84%
    09:00 -7°C° 0 mm 0 m/S 752 mmHg 83%
    10:00 -6°C° 0 mm 1 m/S 753 mmHg 81%
    11:00 -4°C° 0 mm 1 m/S 753 mmHg 80%
    12:00 -3°C° 0 mm 1 m/S 753 mmHg 80%
    13:00 -3°C° 0 mm 1 m/S 753 mmHg 81%
    14:00 -2°C° 0 mm 1 m/S 753 mmHg 81%
    15:00 -3°C° 0 mm 1 m/S 753 mmHg 84%
    16:00 -3°C° 0 mm 1 m/S 753 mmHg 86%
    17:00 -3°C° 0 mm 1 m/S 753 mmHg 89%
    18:00 -3°C° 0 mm 1 m/S 753 mmHg 90%
    19:00 -4°C° 0 mm 1 m/S 753 mmHg 92%
    20:00 -4°C° 0 mm 1 m/S 753 mmHg 93%
    21:00 -4°C° 0 mm 1 m/S 753 mmHg 93%
    22:00 -4°C° 0 mm 1 m/S 752 mmHg 94%
    23:00 -3°C° 0 mm 1 m/S 752 mmHg 94%
    Mehr zeigen